Time,TemperatureF,DewpointF,PressureIn,WindDirection,WindDirectionDegrees,WindSpeedMPH,WindSpeedGustMPH,Humidity,HourlyPrecipIn,Conditions,Clouds,dailyrainin,SolarRadiationWatts/m^2,SoftwareType,DateUTC
2013-03-27 00:00:00,32.0,27.1,30.35,West,279,0.0,0.0,82,0.00,,,0.00,0.00,VWS V14.01,2013-03-27 05:00:00,
2013-03-27 00:05:00,31.9,27.0,30.35,West,279,0.0,0.0,82,0.00,,,0.00,0.00,VWS V14.01,2013-03-27 05:05:00,
2013-03-27 00:10:00,32.0,27.4,30.35,West,279,0.0,0.0,83,0.00,,,0.00,0.00,VWS V14.01,2013-03-27 05:10:00,
2013-03-27 00:15:00,32.0,27.4,30.35,West,279,0.0,0.0,83,0.00,,,0.00,0.00,VWS V14.01,2013-03-27 05:15:00,
2013-03-27 00:20:00,31.9,27.0,30.35,West,279,0.0,0.0,82,0.00,,,0.00,0.00,VWS V14.01,2013-03-27 05:20:00,
2013-03-27 00:26:00,31.8,26.9,30.35,West,279,0.0,0.0,82,0.00,,,0.00,0.00,VWS V14.01,2013-03-27 05:26:00,
2013-03-27 00:31:00,31.6,26.8,30.35,West,279,0.0,0.0,82,0.00,,,0.00,0.00,VWS V14.01,2013-03-27 05:31:00,
2013-03-27 00:36:00,31.5,26.6,30.34,West,279,0.0,0.0,82,0.00,,,0.00,0.00,VWS V14.01,2013-03-27 05:36:00,
2013-03-27 00:41:00,31.4,26.5,30.34,West,279,0.0,0.0,82,0.00,,,0.00,0.00,VWS V14.01,2013-03-27 05:41:00,
2013-03-27 00:46:00,31.3,26.8,30.34,West,279,0.0,0.0,83,0.00,,,0.00,0.00,VWS V14.01,2013-03-27 05:46:00,
2013-03-27 00:51:00,31.3,26.8,30.35,West,279,0.0,0.0,83,0.00,,,0.00,0.00,VWS V14.01,2013-03-27 05:51:00,
2013-03-27 00:56:00,31.3,26.8,30.35,West,279,0.0,0.0,83,0.00,,,0.00,0.00,VWS V14.01,2013-03-27 05:56:00,
2013-03-27 01:01:00,31.4,27.1,30.35,West,279,0.0,0.0,84,0.00,,,0.00,0.00,VWS V14.01,2013-03-27 06:01:00,
2013-03-27 01:06:00,31.4,27.1,30.35,West,279,0.0,0.0,84,0.00,,,0.00,0.00,VWS V14.01,2013-03-27 06:06:00,
2013-03-27 01:11:00,31.2,26.9,30.35,West,279,0.0,0.0,84,0.00,,,0.00,0.00,VWS V14.01,2013-03-27 06:11:00,
2013-03-27 01:16:00,31.0,26.7,30.35,West,279,0.0,0.0,84,0.00,,,0.00,0.00,VWS V14.01,2013-03-27 06:16:00,
2013-03-27 01:21:00,30.8,26.5,30.34,West,279,0.0,0.0,84,0.00,,,0.00,0.00,VWS V14.01,2013-03-27 06:21:00,
2013-03-27 01:26:00,30.8,26.8,30.34,West,279,0.0,0.0,85,0.00,,,0.00,0.00,VWS V14.01,2013-03-27 06:26:00,
2013-03-27 01:31:00,30.7,26.7,30.35,West,279,0.0,0.0,85,0.00,,,0.00,0.00,VWS V14.01,2013-03-27 06:31:00,
2013-03-27 01:36:00,30.7,26.7,30.34,West,279,0.0,0.0,85,0.00,,,0.00,0.00,VWS V14.01,2013-03-27 06:36:00,
2013-03-27 01:41:00,30.7,26.7,30.35,West,279,0.0,0.0,85,0.00,,,0.00,0.00,VWS V14.01,2013-03-27 06:41:00,
2013-03-27 01:46:00,30.8,26.8,30.35,West,279,0.0,1.0,85,0.00,,,0.00,0.00,VWS V14.01,2013-03-27 06:46:00,
2013-03-27 01:52:00,30.9,26.9,30.34,West,279,0.0,0.0,85,0.00,,,0.00,0.00,VWS V14.01,2013-03-27 06:52:00,
2013-03-27 01:56:00,30.9,26.9,30.34,West,279,0.0,1.0,85,0.00,,,0.00,0.00,VWS V14.01,2013-03-27 06:56:00,
2013-03-27 02:02:00,30.8,26.5,30.35,West,279,0.0,0.0,84,0.00,,,0.00,0.00,VWS V14.01,2013-03-27 07:02:00,
2013-03-27 02:07:00,30.7,26.5,30.35,West,279,0.0,0.0,84,0.00,,,0.00,0.00,VWS V14.01,2013-03-27 07:07:00,
2013-03-27 02:12:00,30.6,26.4,30.34,West,279,0.0,0.0,84,0.00,,,0.00,0.00,VWS V14.01,2013-03-27 07:12:00,
2013-03-27 02:17:00,30.5,26.2,30.34,West,279,0.0,1.0,84,0.00,,,0.00,0.00,VWS V14.01,2013-03-27 07:17:00,
2013-03-27 02:22:00,30.6,26.4,30.34,West,279,0.0,0.0,84,0.00,,,0.00,0.00,VWS V14.01,2013-03-27 07:22:00,
2013-03-27 02:27:00,30.6,26.4,30.34,West,279,0.0,0.0,84,0.00,,,0.00,0.00,VWS V14.01,2013-03-27 07:27:00,
2013-03-27 02:32:00,30.7,26.5,30.34,West,279,0.0,0.0,84,0.00,,,0.00,0.00,VWS V14.01,2013-03-27 07:32:00,
2013-03-27 02:37:00,30.8,26.5,30.34,West,279,0.0,1.0,84,0.00,,,0.00,0.00,VWS V14.01,2013-03-27 07:37:00,
2013-03-27 02:42:00,30.9,26.6,30.34,West,279,0.0,0.0,84,0.00,,,0.00,0.00,VWS V14.01,2013-03-27 07:42:00,
2013-03-27 02:47:00,31.0,26.7,30.35,West,279,0.0,0.0,84,0.00,,,0.00,0.00,VWS V14.01,2013-03-27 07:47:00,
2013-03-27 02:52:00,31.0,26.5,30.34,West,279,0.0,1.0,83,0.00,,,0.00,0.00,VWS V14.01,2013-03-27 07:52:00,
2013-03-27 02:57:00,31.0,26.5,30.34,West,279,0.0,1.0,83,0.00,,,0.00,0.00,VWS V14.01,2013-03-27 07:57:00,
2013-03-27 03:02:00,30.9,26.4,30.34,West,279,0.0,0.0,83,0.00,,,0.00,0.00,VWS V14.01,2013-03-27 08:02:00,
2013-03-27 03:07:00,30.8,26.3,30.34,West,279,0.0,0.0,83,0.00,,,0.00,0.00,VWS V14.01,2013-03-27 08:07:00,
2013-03-27 03:12:00,30.7,26.2,30.34,West,279,0.0,0.0,83,0.00,,,0.00,0.00,VWS V14.01,2013-03-27 08:12:00,
2013-03-27 03:17:00,30.7,26.2,30.34,West,279,0.0,0.0,83,0.00,,,0.00,0.00,VWS V14.01,2013-03-27 08:17:00,
2013-03-27 03:22:00,30.6,25.8,30.34,West,279,0.0,0.0,82,0.00,,,0.00,0.00,VWS V14.01,2013-03-27 08:22:00,
2013-03-27 03:27:00,30.4,25.6,30.35,West,279,0.0,0.0,82,0.00,,,0.00,0.00,VWS V14.01,2013-03-27 08:27:00,
2013-03-27 03:32:00,30.2,25.4,30.35,West,279,0.0,0.0,82,0.00,,,0.00,0.00,VWS V14.01,2013-03-27 08:32:00,
2013-03-27 03:37:00,30.1,25.6,30.34,West,279,0.0,0.0,83,0.00,,,0.00,0.00,VWS V14.01,2013-03-27 08:37:00,
2013-03-27 03:42:00,29.9,25.4,30.34,West,279,0.0,0.0,83,0.00,,,0.00,0.00,VWS V14.01,2013-03-27 08:42:00,
2013-03-27 03:47:00,29.8,25.6,30.35,West,279,0.0,0.0,84,0.00,,,0.00,0.00,VWS V14.01,2013-03-27 08:47:00,
2013-03-27 03:52:00,29.7,25.5,30.35,West,279,0.0,0.0,84,0.00,,,0.00,0.00,VWS V14.01,2013-03-27 08:52:00,
2013-03-27 03:57:00,29.6,25.4,30.35,West,279,0.0,0.0,84,0.00,,,0.00,0.00,VWS V14.01,2013-03-27 08:57:00,
2013-03-27 04:02:00,29.5,25.6,30.35,West,279,0.0,0.0,85,0.00,,,0.00,0.00,VWS V14.01,2013-03-27 09:02:00,
2013-03-27 04:07:00,29.4,25.5,30.35,West,279,0.0,0.0,85,0.00,,,0.00,0.00,VWS V14.01,2013-03-27 09:07:00,
2013-03-27 04:12:00,29.3,25.4,30.35,West,279,0.0,0.0,85,0.00,,,0.00,0.00,VWS V14.01,2013-03-27 09:12:00,
2013-03-27 04:17:00,29.3,25.4,30.35,West,279,1.0,1.0,85,0.00,,,0.00,0.00,VWS V14.01,2013-03-27 09:17:00,
2013-03-27 04:22:00,29.3,25.6,30.35,West,279,0.0,1.0,86,0.00,,,0.00,0.00,VWS V14.01,2013-03-27 09:22:00,
2013-03-27 04:27:00,29.4,25.7,30.35,West,279,0.0,1.0,86,0.00,,,0.00,0.00,VWS V14.01,2013-03-27 09:27:00,
2013-03-27 04:32:00,29.4,25.5,30.35,West,279,0.0,0.0,85,0.00,,,0.00,0.00,VWS V14.01,2013-03-27 09:32:00,
2013-03-27 04:37:00,29.4,25.7,30.35,West,279,0.0,1.0,86,0.00,,,0.00,0.00,VWS V14.01,2013-03-27 09:37:00,
2013-03-27 04:42:00,29.3,25.6,30.34,West,279,0.0,0.0,86,0.00,,,0.00,0.00,VWS V14.01,2013-03-27 09:42:00,
2013-03-27 04:47:00,29.3,25.6,30.34,West,279,0.0,0.0,86,0.00,,,0.00,0.00,VWS V14.01,2013-03-27 09:47:00,
2013-03-27 04:52:00,29.4,25.5,30.35,West,279,0.0,0.0,85,0.00,,,0.00,0.00,VWS V14.01,2013-03-27 09:52:00,
2013-03-27 04:57:00,29.2,25.3,30.35,West,279,0.0,0.0,85,0.00,,,0.00,0.00,VWS V14.01,2013-03-27 09:57:00,
2013-03-27 05:02:00,29.2,25.3,30.35,West,279,0.0,0.0,85,0.00,,,0.00,0.00,VWS V14.01,2013-03-27 10:02:00,
2013-03-27 05:07:00,29.3,25.4,30.34,West,279,0.0,0.0,85,0.00,,,0.00,0.00,VWS V14.01,2013-03-27 10:07:00,
2013-03-27 05:12:00,29.4,25.5,30.34,West,279,0.0,0.0,85,0.00,,,0.00,0.00,VWS V14.01,2013-03-27 10:12:00,
2013-03-27 05:17:00,29.3,25.4,30.34,West,279,0.0,0.0,85,0.00,,,0.00,0.00,VWS V14.01,2013-03-27 10:17:00,
2013-03-27 05:22:00,29.3,25.4,30.35,West,279,0.0,0.0,85,0.00,,,0.00,0.00,VWS V14.01,2013-03-27 10:22:00,
2013-03-27 05:27:00,29.2,25.3,30.35,West,279,0.0,0.0,85,0.00,,,0.00,0.00,VWS V14.01,2013-03-27 10:27:00,
2013-03-27 05:32:00,29.3,25.6,30.35,West,279,0.0,1.0,86,0.00,,,0.00,0.00,VWS V14.01,2013-03-27 10:32:00,
2013-03-27 05:37:00,29.5,25.6,30.35,West,279,0.0,1.0,85,0.00,,,0.00,0.00,VWS V14.01,2013-03-27 10:37:00,
2013-03-27 05:42:00,29.4,25.5,30.35,West,279,0.0,0.0,85,0.00,,,0.00,0.00,VWS V14.01,2013-03-27 10:42:00,
2013-03-27 05:47:00,29.3,25.4,30.35,West,279,0.0,0.0,85,0.00,,,0.00,0.00,VWS V14.01,2013-03-27 10:47:00,
2013-03-27 05:52:00,29.3,25.4,30.35,West,279,0.0,0.0,85,0.00,,,0.00,0.00,VWS V14.01,2013-03-27 10:52:00,
2013-03-27 05:57:00,29.2,25.3,30.35,West,279,0.0,0.0,85,0.00,,,0.00,0.00,VWS V14.01,2013-03-27 10:57:00,
2013-03-27 06:02:00,29.2,25.3,30.35,West,279,0.0,0.0,85,0.00,,,0.00,0.00,VWS V14.01,2013-03-27 11:02:00,
2013-03-27 06:07:00,29.1,25.2,30.35,West,279,0.0,0.0,85,0.00,,,0.00,0.00,VWS V14.01,2013-03-27 11:07:00,
2013-03-27 06:12:00,29.0,25.1,30.36,West,279,0.0,0.0,85,0.00,,,0.00,0.00,VWS V14.01,2013-03-27 11:12:00,
2013-03-27 06:17:00,28.8,24.9,30.36,West,279,0.0,0.0,85,0.00,,,0.00,0.00,VWS V14.01,2013-03-27 11:17:00,
2013-03-27 06:22:00,28.7,24.8,30.36,West,279,0.0,0.0,85,0.00,,,0.00,0.00,VWS V14.01,2013-03-27 11:22:00,
2013-03-27 06:27:00,28.7,24.8,30.36,West,279,0.0,0.0,85,0.00,,,0.00,0.00,VWS V14.01,2013-03-27 11:27:00,
2013-03-27 06:32:00,28.7,24.8,30.37,West,279,0.0,0.0,85,0.00,,,0.00,0.00,VWS V14.01,2013-03-27 11:32:00,
2013-03-27 06:37:00,28.6,24.7,30.37,West,279,0.0,0.0,85,0.00,,,0.00,0.00,VWS V14.01,2013-03-27 11:37:00,
2013-03-27 06:42:00,28.6,25.0,30.37,West,279,0.0,0.0,86,0.00,,,0.00,0.00,VWS V14.01,2013-03-27 11:42:00,
2013-03-27 06:47:00,28.5,24.9,30.37,West,279,0.0,0.0,86,0.00,,,0.00,0.00,VWS V14.01,2013-03-27 11:47:00,
2013-03-27 06:52:00,28.5,24.9,30.37,West,279,0.0,1.0,86,0.00,,,0.00,0.00,VWS V14.01,2013-03-27 11:52:00,
2013-03-27 06:57:00,28.5,24.9,30.37,West,279,0.0,1.0,86,0.00,,,0.00,7.00,VWS V14.01,2013-03-27 11:57:00,
2013-03-27 07:02:00,28.4,24.8,30.37,West,279,0.0,0.0,86,0.00,,,0.00,11.00,VWS V14.01,2013-03-27 12:02:00,
2013-03-27 07:07:00,28.5,24.9,30.37,West,279,0.0,0.0,86,0.00,,,0.00,14.00,VWS V14.01,2013-03-27 12:07:00,
2013-03-27 07:12:00,28.7,25.3,30.37,West,279,0.0,0.0,87,0.00,,,0.00,21.00,VWS V14.01,2013-03-27 12:12:00,
2013-03-27 07:17:00,29.0,25.6,30.38,West,279,0.0,0.0,87,0.00,,,0.00,32.00,VWS V14.01,2013-03-27 12:17:00,
2013-03-27 07:22:00,29.3,25.9,30.38,West,279,0.0,0.0,87,0.00,,,0.00,44.00,VWS V14.01,2013-03-27 12:22:00,
2013-03-27 07:27:00,29.8,26.4,30.38,West,279,0.0,0.0,87,0.00,,,0.00,58.00,VWS V14.01,2013-03-27 12:27:00,
2013-03-27 07:32:00,30.3,26.9,30.38,West,279,0.0,0.0,87,0.00,,,0.00,76.00,VWS V14.01,2013-03-27 12:32:00,
2013-03-27 07:37:00,30.6,26.9,30.38,West,279,0.0,0.0,86,0.00,,,0.00,90.00,VWS V14.01,2013-03-27 12:37:00,
2013-03-27 07:42:00,31.2,27.5,30.38,West,279,0.0,0.0,86,0.00,,,0.00,105.00,VWS V14.01,2013-03-27 12:42:00,
2013-03-27 07:47:00,31.9,27.9,30.38,West,279,0.0,0.0,85,0.00,,,0.00,123.00,VWS V14.01,2013-03-27 12:47:00,
2013-03-27 07:52:00,32.6,28.3,30.38,West,279,0.0,0.0,84,0.00,,,0.00,139.00,VWS V14.01,2013-03-27 12:52:00,
2013-03-27 07:57:00,33.4,28.8,30.39,West,279,0.0,0.0,83,0.00,,,0.00,158.00,VWS V14.01,2013-03-27 12:57:00,
2013-03-27 08:02:00,34.4,29.5,30.39,West,279,0.0,0.0,82,0.00,,,0.00,179.00,VWS V14.01,2013-03-27 13:02:00,
2013-03-27 08:07:00,35.4,30.2,30.39,West,279,0.0,0.0,81,0.00,,,0.00,202.00,VWS V14.01,2013-03-27 13:07:00,
2013-03-27 08:12:00,36.1,29.9,30.39,West,279,0.0,0.0,78,0.00,,,0.00,220.00,VWS V14.01,2013-03-27 13:12:00,
2013-03-27 08:17:00,36.4,29.6,30.39,West,279,0.0,0.0,76,0.00,,,0.00,236.00,VWS V14.01,2013-03-27 13:17:00,
2013-03-27 08:22:00,36.8,30.0,30.40,West,279,0.0,0.0,76,0.00,,,0.00,255.00,VWS V14.01,2013-03-27 13:22:00,
2013-03-27 08:27:00,37.8,30.6,30.40,West,279,0.0,0.0,75,0.00,,,0.00,272.00,VWS V14.01,2013-03-27 13:27:00,
2013-03-27 08:32:00,38.9,31.3,30.40,West,279,0.0,0.0,74,0.00,,,0.00,290.00,VWS V14.01,2013-03-27 13:32:00,
2013-03-27 08:37:00,39.7,31.1,30.40,West,279,0.0,2.0,71,0.00,,,0.00,311.00,VWS V14.01,2013-03-27 13:37:00,
2013-03-27 08:42:00,40.3,31.0,30.40,West,269,1.0,4.0,69,0.00,,,0.00,336.00,VWS V14.01,2013-03-27 13:42:00,
2013-03-27 08:47:00,40.7,31.0,30.40,West,267,0.0,4.0,68,0.00,,,0.00,360.00,VWS V14.01,2013-03-27 13:47:00,
2013-03-27 08:52:00,41.7,31.6,30.40,West,267,0.0,2.0,67,0.00,,,0.00,378.00,VWS V14.01,2013-03-27 13:52:00,
2013-03-27 08:58:00,42.4,31.5,30.40,West,267,0.0,3.0,65,0.00,,,0.00,396.00,VWS V14.01,2013-03-27 13:58:00,
2013-03-27 09:02:00,42.8,31.5,30.40,West,267,3.0,3.0,64,0.00,,,0.00,415.00,VWS V14.01,2013-03-27 14:02:00,
2013-03-27 09:07:00,43.6,31.9,30.41,West,267,0.0,3.0,63,0.00,,,0.00,432.00,VWS V14.01,2013-03-27 14:07:00,
2013-03-27 09:12:00,43.8,31.6,30.41,South,186,2.0,5.0,62,0.00,,,0.00,450.00,VWS V14.01,2013-03-27 14:12:00,
2013-03-27 09:18:00,43.8,31.2,30.40,WSW,238,2.0,5.0,61,0.00,,,0.00,468.00,VWS V14.01,2013-03-27 14:18:00,
2013-03-27 09:22:00,44.1,31.1,30.40,SW,226,2.0,5.0,60,0.00,,,0.00,485.00,VWS V14.01,2013-03-27 14:22:00,
2013-03-27 09:27:00,44.4,31.8,30.40,WSW,238,2.0,5.0,61,0.00,,,0.00,499.00,VWS V14.01,2013-03-27 14:27:00,
2013-03-27 09:32:00,44.3,31.7,30.40,South,185,0.0,5.0,61,0.00,,,0.00,517.00,VWS V14.01,2013-03-27 14:32:00,
2013-03-27 09:38:00,45.0,32.0,30.41,SW,234,0.0,6.0,60,0.00,,,0.00,533.00,VWS V14.01,2013-03-27 14:38:00,
2013-03-27 09:43:00,45.7,32.2,30.41,SSW,205,0.0,4.0,59,0.00,,,0.00,550.00,VWS V14.01,2013-03-27 14:43:00,
2013-03-27 09:48:00,46.5,33.0,30.41,WSW,255,0.0,6.0,59,0.00,,,0.00,568.00,VWS V14.01,2013-03-27 14:48:00,
2013-03-27 09:52:00,47.4,32.5,30.41,WSW,249,3.0,7.0,56,0.00,,,0.00,585.00,VWS V14.01,2013-03-27 14:52:00,
2013-03-27 09:57:00,47.8,32.0,30.41,West,270,2.0,10.0,54,0.00,,,0.00,599.00,VWS V14.01,2013-03-27 14:57:00,
2013-03-27 10:03:00,47.8,31.5,30.41,WSW,241,5.0,8.0,53,0.00,,,0.00,613.00,VWS V14.01,2013-03-27 15:03:00,
2013-03-27 10:08:00,48.1,31.3,30.41,SW,229,1.0,8.0,52,0.00,,,0.00,629.00,VWS V14.01,2013-03-27 15:08:00,
2013-03-27 10:13:00,48.6,31.3,30.41,SW,221,4.0,6.0,51,0.00,,,0.00,647.00,VWS V14.01,2013-03-27 15:13:00,
2013-03-27 10:18:00,49.0,31.7,30.41,SW,225,1.0,6.0,51,0.00,,,0.00,661.00,VWS V14.01,2013-03-27 15:18:00,
2013-03-27 10:23:00,49.4,31.1,30.41,SSW,209,2.0,6.0,49,0.00,,,0.00,675.00,VWS V14.01,2013-03-27 15:23:00,
2013-03-27 10:28:00,49.7,30.8,30.41,WSW,254,3.0,7.0,48,0.00,,,0.00,689.00,VWS V14.01,2013-03-27 15:28:00,
2013-03-27 10:33:00,49.8,30.4,30.41,North,9,3.0,5.0,47,0.00,,,0.00,703.00,VWS V14.01,2013-03-27 15:33:00,
2013-03-27 10:38:00,49.9,30.5,30.41,West,278,8.0,10.0,47,0.00,,,0.00,717.00,VWS V14.01,2013-03-27 15:38:00,
2013-03-27 10:43:00,49.9,30.0,30.41,SW,232,5.0,8.0,46,0.00,,,0.00,729.00,VWS V14.01,2013-03-27 15:43:00,
2013-03-27 10:48:00,49.9,30.5,30.42,WSW,245,2.0,8.0,47,0.00,,,0.00,742.00,VWS V14.01,2013-03-27 15:48:00,
2013-03-27 10:53:00,50.4,30.4,30.42,WSW,239,0.0,4.0,46,0.00,,,0.00,758.00,VWS V14.01,2013-03-27 15:53:00,
2013-03-27 10:58:00,50.9,30.9,30.42,WSW,242,0.0,7.0,46,0.00,,,0.00,766.00,VWS V14.01,2013-03-27 15:58:00,
2013-03-27 11:03:00,51.2,30.6,30.42,WNW,294,5.0,7.0,45,0.00,,,0.00,782.00,VWS V14.01,2013-03-27 16:03:00,
2013-03-27 11:08:00,50.8,30.8,30.42,WNW,285,3.0,8.0,46,0.00,,,0.00,789.00,VWS V14.01,2013-03-27 16:08:00,
2013-03-27 11:13:00,51.1,30.0,30.41,WSW,256,0.0,5.0,44,0.00,,,0.00,800.00,VWS V14.01,2013-03-27 16:13:00,
2013-03-27 11:18:00,51.1,30.0,30.41,SW,230,1.0,7.0,44,0.00,,,0.00,812.00,VWS V14.01,2013-03-27 16:18:00,
2013-03-27 11:23:00,51.9,30.7,30.41,WSW,244,0.0,4.0,44,0.00,,,0.00,821.00,VWS V14.01,2013-03-27 16:23:00,
2013-03-27 11:28:00,52.0,30.2,30.41,West,269,0.0,7.0,43,0.00,,,0.00,830.00,VWS V14.01,2013-03-27 16:28:00,
2013-03-27 11:33:00,51.7,29.9,30.41,SW,221,0.0,5.0,43,0.00,,,0.00,837.00,VWS V14.01,2013-03-27 16:33:00,
2013-03-27 11:38:00,52.0,30.8,30.41,SW,230,0.0,5.0,44,0.00,,,0.00,846.00,VWS V14.01,2013-03-27 16:38:00,
2013-03-27 11:43:00,52.2,30.4,30.41,South,178,4.0,7.0,43,0.00,,,0.00,854.00,VWS V14.01,2013-03-27 16:43:00,
2013-03-27 11:48:00,51.2,30.0,30.41,WSW,254,3.0,8.0,44,0.00,,,0.00,863.00,VWS V14.01,2013-03-27 16:48:00,
2013-03-27 11:53:00,51.9,31.2,30.41,SW,236,1.0,5.0,45,0.00,,,0.00,867.00,VWS V14.01,2013-03-27 16:53:00,
2013-03-27 11:58:00,52.0,30.8,30.40,South,181,5.0,6.0,44,0.00,,,0.00,875.00,VWS V14.01,2013-03-27 16:58:00,
2013-03-27 12:03:00,52.3,31.0,30.40,SSE,155,3.0,5.0,44,0.00,,,0.00,881.00,VWS V14.01,2013-03-27 17:03:00,
2013-03-27 12:08:00,52.0,30.2,30.40,SSW,195,2.0,5.0,43,0.00,,,0.00,889.00,VWS V14.01,2013-03-27 17:08:00,
2013-03-27 12:13:00,52.3,30.5,30.40,WSW,243,3.0,6.0,43,0.00,,,0.00,896.00,VWS V14.01,2013-03-27 17:13:00,
2013-03-27 12:18:00,52.3,31.0,30.40,SSW,199,0.0,7.0,44,0.00,,,0.00,904.00,VWS V14.01,2013-03-27 17:18:00,
2013-03-27 12:23:00,52.5,30.1,30.40,South,180,0.0,7.0,42,0.00,,,0.00,909.00,VWS V14.01,2013-03-27 17:23:00,
2013-03-27 12:28:00,53.3,31.4,30.40,SW,232,3.0,7.0,43,0.00,,,0.00,916.00,VWS V14.01,2013-03-27 17:28:00,
2013-03-27 12:33:00,53.1,30.6,30.39,WSW,253,1.0,9.0,42,0.00,,,0.00,914.00,VWS V14.01,2013-03-27 17:33:00,
2013-03-27 12:38:00,53.4,31.5,30.39,West,266,1.0,9.0,43,0.00,,,0.00,921.00,VWS V14.01,2013-03-27 17:38:00,
2013-03-27 12:43:00,54.1,31.5,30.39,WSW,254,0.0,3.0,42,0.00,,,0.00,918.00,VWS V14.01,2013-03-27 17:43:00,
2013-03-27 12:48:00,54.8,32.2,30.38,SSW,199,1.0,7.0,42,0.00,,,0.00,854.00,VWS V14.01,2013-03-27 17:48:00,
2013-03-27 12:53:00,54.9,31.7,30.38,SSW,200,3.0,6.0,41,0.00,,,0.00,914.00,VWS V14.01,2013-03-27 17:53:00,
2013-03-27 12:58:00,54.4,30.6,30.38,SSW,195,0.0,6.0,40,0.00,,,0.00,911.00,VWS V14.01,2013-03-27 17:58:00,
2013-03-27 13:03:00,54.1,30.3,30.38,SSW,194,0.0,1.0,40,0.00,,,0.00,919.00,VWS V14.01,2013-03-27 18:03:00,
2013-03-27 13:08:00,54.6,32.0,30.38,West,276,6.0,8.0,42,0.00,,,0.00,932.00,VWS V14.01,2013-03-27 18:08:00,
2013-03-27 13:13:00,54.8,31.6,30.38,WSW,243,1.0,12.0,41,0.00,,,0.00,937.00,VWS V14.01,2013-03-27 18:13:00,
2013-03-27 13:18:00,55.2,31.9,30.38,West,265,5.0,12.0,41,0.00,,,0.00,935.00,VWS V14.01,2013-03-27 18:18:00,
2013-03-27 13:23:00,55.5,31.6,30.38,SW,233,1.0,8.0,40,0.00,,,0.00,933.00,VWS V14.01,2013-03-27 18:23:00,
2013-03-27 13:28:00,55.4,31.5,30.38,West,271,4.0,8.0,40,0.00,,,0.00,935.00,VWS V14.01,2013-03-27 18:28:00,
2013-03-27 13:33:00,55.5,32.2,30.37,West,265,3.0,6.0,41,0.00,,,0.00,921.00,VWS V14.01,2013-03-27 18:33:00,
2013-03-27 13:38:00,55.3,30.8,30.37,WSW,251,4.0,6.0,39,0.00,,,0.00,918.00,VWS V14.01,2013-03-27 18:38:00,
2013-03-27 13:43:00,55.8,31.9,30.36,WSW,248,1.0,9.0,40,0.00,,,0.00,912.00,VWS V14.01,2013-03-27 18:43:00,
2013-03-27 13:48:00,56.0,31.4,30.36,SW,218,3.0,9.0,39,0.00,,,0.00,912.00,VWS V14.01,2013-03-27 18:48:00,
2013-03-27 13:53:00,56.2,31.6,30.36,West,261,1.0,12.0,39,0.00,,,0.00,905.00,VWS V14.01,2013-03-27 18:53:00,
2013-03-27 13:58:00,56.2,31.6,30.36,SSW,211,3.0,12.0,39,0.00,,,0.00,895.00,VWS V14.01,2013-03-27 18:58:00,
2013-03-27 14:03:00,56.6,32.6,30.36,West,277,4.0,11.0,40,0.00,,,0.00,874.00,VWS V14.01,2013-03-27 19:03:00,
2013-03-27 14:08:00,57.2,32.5,30.36,WNW,287,6.0,11.0,39,0.00,,,0.00,891.00,VWS V14.01,2013-03-27 19:08:00,
2013-03-27 14:13:00,56.6,31.3,30.35,WNW,285,2.0,7.0,38,0.00,,,0.00,884.00,VWS V14.01,2013-03-27 19:13:00,
2013-03-27 14:18:00,56.7,32.0,30.35,WNW,283,5.0,7.0,39,0.00,,,0.00,914.00,VWS V14.01,2013-03-27 19:18:00,
2013-03-27 14:23:00,56.9,33.5,30.34,WSW,254,4.0,12.0,41,0.00,,,0.00,733.00,VWS V14.01,2013-03-27 19:23:00,
2013-03-27 14:28:00,57.1,31.8,30.34,WSW,252,0.0,12.0,38,0.00,,,0.00,877.00,VWS V14.01,2013-03-27 19:28:00,
2013-03-27 14:33:00,56.7,32.7,30.34,WSW,257,1.0,5.0,40,0.00,,,0.00,466.00,VWS V14.01,2013-03-27 19:33:00,
2013-03-27 14:38:00,56.9,33.5,30.34,WSW,238,3.0,7.0,41,0.00,,,0.00,870.00,VWS V14.01,2013-03-27 19:38:00,
2013-03-27 14:43:00,57.5,32.8,30.33,West,271,3.0,6.0,39,0.00,,,0.00,831.00,VWS V14.01,2013-03-27 19:43:00,
2013-03-27 14:48:00,57.0,31.0,30.33,NNW,327,2.0,12.0,37,0.00,,,0.00,698.00,VWS V14.01,2013-03-27 19:48:00,
2013-03-27 14:53:00,56.0,31.4,30.33,ENE,74,4.0,4.0,39,0.00,,,0.00,800.00,VWS V14.01,2013-03-27 19:53:00,
2013-03-27 14:58:00,55.5,31.6,30.33,SE,134,0.0,6.0,40,0.00,,,0.00,805.00,VWS V14.01,2013-03-27 19:58:00,
2013-03-27 15:03:00,56.7,32.7,30.32,West,277,4.0,8.0,40,0.00,,,0.00,793.00,VWS V14.01,2013-03-27 20:03:00,
2013-03-27 15:08:00,57.5,33.4,30.32,West,272,6.0,9.0,40,0.00,,,0.00,775.00,VWS V14.01,2013-03-27 20:08:00,
2013-03-27 15:13:00,57.2,33.1,30.32,WNW,299,4.0,11.0,40,0.00,,,0.00,756.00,VWS V14.01,2013-03-27 20:13:00,
2013-03-27 15:18:00,56.4,32.4,30.32,West,276,0.0,11.0,40,0.00,,,0.00,745.00,VWS V14.01,2013-03-27 20:18:00,
2013-03-27 15:23:00,56.3,32.3,30.31,NE,36,2.0,4.0,40,0.00,,,0.00,737.00,VWS V14.01,2013-03-27 20:23:00,
2013-03-27 15:28:00,56.0,32.7,30.31,SW,227,2.0,6.0,41,0.00,,,0.00,717.00,VWS V14.01,2013-03-27 20:28:00,
2013-03-27 15:33:00,56.8,32.8,30.31,SW,227,2.0,4.0,40,0.00,,,0.00,728.00,VWS V14.01,2013-03-27 20:33:00,
2013-03-27 15:38:00,56.7,32.0,30.31,WSW,254,0.0,7.0,39,0.00,,,0.00,719.00,VWS V14.01,2013-03-27 20:38:00,
2013-03-27 15:43:00,56.7,32.0,30.30,SSE,165,1.0,4.0,39,0.00,,,0.00,708.00,VWS V14.01,2013-03-27 20:43:00,
2013-03-27 15:48:00,56.5,32.5,30.30,SSE,153,1.0,5.0,40,0.00,,,0.00,701.00,VWS V14.01,2013-03-27 20:48:00,
2013-03-27 15:53:00,56.3,31.7,30.30,South,177,2.0,4.0,39,0.00,,,0.00,663.00,VWS V14.01,2013-03-27 20:53:00,
2013-03-27 15:58:00,55.9,31.3,30.30,West,263,1.0,6.0,39,0.00,,,0.00,661.00,VWS V14.01,2013-03-27 20:58:00,
2013-03-27 16:03:00,55.5,31.6,30.30,East,94,2.0,6.0,40,0.00,,,0.00,643.00,VWS V14.01,2013-03-27 21:03:00,
2013-03-27 16:08:00,56.2,32.2,30.29,SW,225,3.0,6.0,40,0.00,,,0.00,594.00,VWS V14.01,2013-03-27 21:08:00,
2013-03-27 16:13:00,56.9,32.2,30.29,SW,223,3.0,4.0,39,0.00,,,0.00,622.00,VWS V14.01,2013-03-27 21:13:00,
2013-03-27 16:18:00,56.6,32.6,30.29,SSE,163,2.0,5.0,40,0.00,,,0.00,613.00,VWS V14.01,2013-03-27 21:18:00,
2013-03-27 16:23:00,56.8,32.1,30.29,SW,231,0.0,4.0,39,0.00,,,0.00,587.00,VWS V14.01,2013-03-27 21:23:00,
2013-03-27 16:28:00,57.3,32.6,30.29,SW,230,1.0,4.0,39,0.00,,,0.00,538.00,VWS V14.01,2013-03-27 21:28:00,
2013-03-27 16:33:00,57.9,32.5,30.29,SW,226,0.0,5.0,38,0.00,,,0.00,515.00,VWS V14.01,2013-03-27 21:33:00,
2013-03-27 16:38:00,58.2,32.7,30.30,WNW,284,4.0,7.0,38,0.00,,,0.00,541.00,VWS V14.01,2013-03-27 21:38:00,
2013-03-27 16:43:00,57.6,31.5,30.30,WNW,290,0.0,5.0,37,0.00,,,0.00,526.00,VWS V14.01,2013-03-27 21:43:00,
2013-03-27 16:48:00,57.5,32.1,30.29,WNW,290,2.0,5.0,38,0.00,,,0.00,510.00,VWS V14.01,2013-03-27 21:48:00,
2013-03-27 16:53:00,56.9,31.6,30.30,SSE,153,2.0,4.0,38,0.00,,,0.00,490.00,VWS V14.01,2013-03-27 21:53:00,
2013-03-27 16:58:00,56.4,31.1,30.30,South,184,1.0,6.0,38,0.00,,,0.00,471.00,VWS V14.01,2013-03-27 21:58:00,
2013-03-27 17:03:00,56.6,32.0,30.30,WSW,251,2.0,4.0,39,0.00,,,0.00,454.00,VWS V14.01,2013-03-27 22:03:00,
2013-03-27 17:08:00,57.2,32.5,30.30,WSW,241,1.0,4.0,39,0.00,,,0.00,438.00,VWS V14.01,2013-03-27 22:08:00,
2013-03-27 17:13:00,57.7,32.3,30.30,West,259,1.0,5.0,38,0.00,,,0.00,427.00,VWS V14.01,2013-03-27 22:13:00,
2013-03-27 17:18:00,58.0,32.6,30.30,West,259,0.0,5.0,38,0.00,,,0.00,427.00,VWS V14.01,2013-03-27 22:18:00,
2013-03-27 17:23:00,57.6,32.2,30.29,SW,234,0.0,3.0,38,0.00,,,0.00,216.00,VWS V14.01,2013-03-27 22:23:00,
2013-03-27 17:28:00,57.4,32.7,30.30,SW,236,3.0,4.0,39,0.00,,,0.00,206.00,VWS V14.01,2013-03-27 22:28:00,
2013-03-27 17:33:00,57.2,31.8,30.30,West,276,0.0,6.0,38,0.00,,,0.00,239.00,VWS V14.01,2013-03-27 22:33:00,
2013-03-27 17:38:00,57.1,32.4,30.30,West,276,2.0,6.0,39,0.00,,,0.00,202.00,VWS V14.01,2013-03-27 22:38:00,
2013-03-27 17:43:00,56.7,32.0,30.29,West,273,0.0,1.0,39,0.00,,,0.00,171.00,VWS V14.01,2013-03-27 22:43:00,
2013-03-27 17:48:00,56.6,32.0,30.29,West,273,0.0,1.0,39,0.00,,,0.00,156.00,VWS V14.01,2013-03-27 22:48:00,
2013-03-27 17:53:00,56.5,31.9,30.29,West,273,0.0,1.0,39,0.00,,,0.00,134.00,VWS V14.01,2013-03-27 22:53:00,
2013-03-27 17:58:00,56.5,31.9,30.29,West,273,0.0,3.0,39,0.00,,,0.00,197.00,VWS V14.01,2013-03-27 22:58:00,
2013-03-27 18:03:00,56.4,31.8,30.29,West,273,0.0,3.0,39,0.00,,,0.00,193.00,VWS V14.01,2013-03-27 23:03:00,
2013-03-27 18:08:00,55.9,31.3,30.29,West,267,1.0,3.0,39,0.00,,,0.00,181.00,VWS V14.01,2013-03-27 23:08:00,
2013-03-27 18:13:00,55.9,31.3,30.29,West,267,0.0,2.0,39,0.00,,,0.00,123.00,VWS V14.01,2013-03-27 23:13:00,
2013-03-27 18:18:00,55.9,32.0,30.29,West,267,0.0,2.0,40,0.00,,,0.00,88.00,VWS V14.01,2013-03-27 23:18:00,
2013-03-27 18:23:00,56.0,31.4,30.29,West,267,0.0,2.0,39,0.00,,,0.00,83.00,VWS V14.01,2013-03-27 23:23:00,
2013-03-27 18:28:00,55.8,31.2,30.29,West,267,4.0,4.0,39,0.00,,,0.00,79.00,VWS V14.01,2013-03-27 23:28:00,
2013-03-27 18:33:00,55.4,30.9,30.29,West,274,1.0,3.0,39,0.00,,,0.00,67.00,VWS V14.01,2013-03-27 23:33:00,
2013-03-27 18:38:00,55.1,31.2,30.29,West,273,0.0,3.0,40,0.00,,,0.00,49.00,VWS V14.01,2013-03-27 23:38:00,
2013-03-27 18:43:00,54.9,31.0,30.29,West,274,0.0,2.0,40,0.00,,,0.00,37.00,VWS V14.01,2013-03-27 23:43:00,
2013-03-27 18:48:00,54.7,30.9,30.29,West,273,0.0,3.0,40,0.00,,,0.00,30.00,VWS V14.01,2013-03-27 23:48:00,
2013-03-27 18:53:00,54.6,31.4,30.29,West,273,0.0,1.0,41,0.00,,,0.00,21.00,VWS V14.01,2013-03-27 23:53:00,
2013-03-27 18:58:00,54.5,31.9,30.29,West,273,0.0,2.0,42,0.00,,,0.00,19.00,VWS V14.01,2013-03-27 23:58:00,
2013-03-27 19:03:00,54.4,31.8,30.29,West,274,0.0,0.0,42,0.00,,,0.00,11.00,VWS V14.01,2013-03-28 00:03:00,
2013-03-27 19:08:00,54.2,31.6,30.29,West,273,1.0,2.0,42,0.00,,,0.00,7.00,VWS V14.01,2013-03-28 00:08:00,
2013-03-27 19:13:00,54.1,30.9,30.29,West,274,0.0,1.0,41,0.00,,,0.00,5.00,VWS V14.01,2013-03-28 00:13:00,
2013-03-27 19:18:00,54.1,31.5,30.29,West,274,0.0,1.0,42,0.00,,,0.00,0.00,VWS V14.01,2013-03-28 00:18:00,
2013-03-27 19:23:00,53.9,31.4,30.29,West,273,0.0,1.0,42,0.00,,,0.00,0.00,VWS V14.01,2013-03-28 00:23:00,
2013-03-27 19:28:00,53.8,31.3,30.29,West,273,0.0,1.0,42,0.00,,,0.00,0.00,VWS V14.01,2013-03-28 00:28:00,
2013-03-27 19:33:00,53.7,32.3,30.29,West,274,0.0,0.0,44,0.00,,,0.00,0.00,VWS V14.01,2013-03-28 00:33:00,
2013-03-27 19:38:00,53.5,33.2,30.29,West,274,0.0,0.0,46,0.00,,,0.00,0.00,VWS V14.01,2013-03-28 00:38:00,
2013-03-27 19:43:00,53.2,33.5,30.29,West,273,0.0,0.0,47,0.00,,,0.00,0.00,VWS V14.01,2013-03-28 00:43:00,
2013-03-27 19:48:00,52.9,33.8,30.29,West,274,0.0,0.0,48,0.00,,,0.00,0.00,VWS V14.01,2013-03-28 00:48:00,
2013-03-27 19:53:00,52.6,33.5,30.29,West,273,0.0,0.0,48,0.00,,,0.00,0.00,VWS V14.01,2013-03-28 00:53:00,
2013-03-27 19:58:00,52.2,33.1,30.29,West,273,0.0,0.0,48,0.00,,,0.00,0.00,VWS V14.01,2013-03-28 00:58:00,
2013-03-27 20:03:00,51.9,32.8,30.28,West,274,0.0,0.0,48,0.00,,,0.00,0.00,VWS V14.01,2013-03-28 01:03:00,
2013-03-27 20:08:00,51.5,33.5,30.29,West,274,0.0,0.0,50,0.00,,,0.00,0.00,VWS V14.01,2013-03-28 01:08:00,
2013-03-27 20:13:00,51.3,33.8,30.29,West,274,0.0,0.0,51,0.00,,,0.00,0.00,VWS V14.01,2013-03-28 01:13:00,
2013-03-27 20:18:00,51.0,33.5,30.29,West,273,0.0,0.0,51,0.00,,,0.00,0.00,VWS V14.01,2013-03-28 01:18:00,
2013-03-27 20:23:00,50.6,33.2,30.29,West,273,0.0,0.0,51,0.00,,,0.00,0.00,VWS V14.01,2013-03-28 01:23:00,
2013-03-27 20:28:00,50.4,33.9,30.29,West,274,0.0,0.0,53,0.00,,,0.00,0.00,VWS V14.01,2013-03-28 01:28:00,
2013-03-27 20:33:00,50.3,34.8,30.29,West,274,0.0,1.0,55,0.00,,,0.00,0.00,VWS V14.01,2013-03-28 01:33:00,
2013-03-27 20:38:00,50.1,34.6,30.29,West,273,0.0,1.0,55,0.00,,,0.00,0.00,VWS V14.01,2013-03-28 01:38:00,
2013-03-27 20:43:00,50.0,35.4,30.29,West,274,0.0,0.0,57,0.00,,,0.00,0.00,VWS V14.01,2013-03-28 01:43:00,
2013-03-27 20:48:00,49.8,35.2,30.29,West,273,0.0,0.0,57,0.00,,,0.00,0.00,VWS V14.01,2013-03-28 01:48:00,
2013-03-27 20:53:00,49.6,33.7,30.29,West,273,0.0,0.0,54,0.00,,,0.00,0.00,VWS V14.01,2013-03-28 01:53:00,
2013-03-27 20:58:00,49.6,32.7,30.29,West,273,0.0,0.0,52,0.00,,,0.00,0.00,VWS V14.01,2013-03-28 01:58:00,
2013-03-27 21:03:00,49.7,32.3,30.29,West,273,0.0,1.0,51,0.00,,,0.00,0.00,VWS V14.01,2013-03-28 02:03:00,
2013-03-27 21:08:00,49.9,32.5,30.29,West,274,0.0,2.0,51,0.00,,,0.00,0.00,VWS V14.01,2013-03-28 02:08:00,
2013-03-27 21:13:00,49.9,32.0,30.29,West,274,0.0,1.0,50,0.00,,,0.00,0.00,VWS V14.01,2013-03-28 02:13:00,
2013-03-27 21:18:00,49.8,31.9,30.28,West,273,0.0,1.0,50,0.00,,,0.00,0.00,VWS V14.01,2013-03-28 02:18:00,
2013-03-27 21:23:00,49.7,32.3,30.28,West,274,0.0,0.0,51,0.00,,,0.00,0.00,VWS V14.01,2013-03-28 02:23:00,
2013-03-27 21:28:00,49.5,33.6,30.28,West,274,0.0,0.0,54,0.00,,,0.00,0.00,VWS V14.01,2013-03-28 02:28:00,
2013-03-27 21:33:00,49.2,35.5,30.28,West,273,0.0,0.0,59,0.00,,,0.00,0.00,VWS V14.01,2013-03-28 02:33:00,
2013-03-27 21:38:00,48.7,35.0,30.28,West,274,0.0,0.0,59,0.00,,,0.00,0.00,VWS V14.01,2013-03-28 02:38:00,
2013-03-27 21:43:00,48.3,35.1,30.28,West,274,0.0,0.0,60,0.00,,,0.00,0.00,VWS V14.01,2013-03-28 02:43:00,
2013-03-27 21:48:00,47.9,34.7,30.28,West,274,0.0,0.0,60,0.00,,,0.00,0.00,VWS V14.01,2013-03-28 02:48:00,
2013-03-27 21:53:00,47.4,34.6,30.28,West,274,0.0,0.0,61,0.00,,,0.00,0.00,VWS V14.01,2013-03-28 02:53:00,
2013-03-27 21:58:00,47.0,33.8,30.28,West,273,0.0,0.0,60,0.00,,,0.00,0.00,VWS V14.01,2013-03-28 02:58:00,
2013-03-27 22:03:00,46.6,33.5,30.28,West,273,0.0,0.0,60,0.00,,,0.00,0.00,VWS V14.01,2013-03-28 03:03:00,
2013-03-27 22:08:00,46.3,33.2,30.28,West,273,0.0,0.0,60,0.00,,,0.00,0.00,VWS V14.01,2013-03-28 03:08:00,
2013-03-27 22:13:00,46.1,34.6,30.28,West,273,0.0,0.0,64,0.00,,,0.00,0.00,VWS V14.01,2013-03-28 03:13:00,
2013-03-27 22:18:00,46.1,36.5,30.28,West,273,0.0,0.0,69,0.00,,,0.00,0.00,VWS V14.01,2013-03-28 03:18:00,
2013-03-27 22:23:00,45.9,36.7,30.29,West,274,0.0,0.0,70,0.00,,,0.00,0.00,VWS V14.01,2013-03-28 03:23:00,
2013-03-27 22:28:00,45.8,37.3,30.29,West,274,0.0,0.0,72,0.00,,,0.00,0.00,VWS V14.01,2013-03-28 03:28:00,
2013-03-27 22:33:00,45.6,37.1,30.29,West,273,0.0,0.0,72,0.00,,,0.00,0.00,VWS V14.01,2013-03-28 03:33:00,
2013-03-27 22:38:00,45.3,36.1,30.29,West,273,0.0,0.0,70,0.00,,,0.00,0.00,VWS V14.01,2013-03-28 03:38:00,
2013-03-27 22:43:00,45.2,36.0,30.29,West,274,0.0,0.0,70,0.00,,,0.00,0.00,VWS V14.01,2013-03-28 03:43:00,
2013-03-27 22:48:00,45.0,35.5,30.29,West,274,0.0,0.0,69,0.00,,,0.00,0.00,VWS V14.01,2013-03-28 03:48:00,
2013-03-27 22:53:00,45.0,35.5,30.29,West,274,0.0,0.0,69,0.00,,,0.00,0.00,VWS V14.01,2013-03-28 03:53:00,
2013-03-27 22:58:00,44.9,34.6,30.29,West,274,0.0,0.0,67,0.00,,,0.00,0.00,VWS V14.01,2013-03-28 03:58:00,
2013-03-27 23:00:00,44.9,34.6,30.29,West,273,0.0,0.0,67,0.00,,,0.00,0.00,VWS V14.01,2013-03-28 04:00:00,
2013-03-27 23:05:00,44.7,34.4,30.29,West,273,0.0,0.0,67,0.00,,,0.00,0.00,VWS V14.01,2013-03-28 04:05:00,
2013-03-27 23:10:00,44.5,34.2,30.29,West,274,0.0,0.0,67,0.00,,,0.00,0.00,VWS V14.01,2013-03-28 04:10:00,
2013-03-27 23:15:00,44.4,34.1,30.29,West,274,0.0,0.0,67,0.00,,,0.00,0.00,VWS V14.01,2013-03-28 04:15:00,
2013-03-27 23:20:00,44.2,34.3,30.30,West,274,0.0,0.0,68,0.00,,,0.00,0.00,VWS V14.01,2013-03-28 04:20:00,
2013-03-27 23:25:00,44.1,33.9,30.30,West,273,0.0,0.0,67,0.00,,,0.00,0.00,VWS V14.01,2013-03-28 04:25:00,
2013-03-27 23:30:00,43.9,33.7,30.30,West,274,0.0,0.0,67,0.00,,,0.00,0.00,VWS V14.01,2013-03-28 04:30:00,
2013-03-27 23:35:00,43.7,33.5,30.30,West,273,0.0,0.0,67,0.00,,,0.00,0.00,VWS V14.01,2013-03-28 04:35:00,
2013-03-27 23:40:00,43.5,33.7,30.30,West,274,0.0,0.0,68,0.00,,,0.00,0.00,VWS V14.01,2013-03-28 04:40:00,
2013-03-27 23:45:00,43.4,33.2,30.30,West,273,0.0,0.0,67,0.00,,,0.00,0.00,VWS V14.01,2013-03-28 04:45:00,
2013-03-27 23:50:00,43.2,33.0,30.30,West,274,0.0,0.0,67,0.00,,,0.00,0.00,VWS V14.01,2013-03-28 04:50:00,
2013-03-27 23:55:00,43.2,33.7,30.30,West,274,0.0,0.0,69,0.00,,,0.00,0.00,VWS V14.01,2013-03-28 04:55:00,